DW8790 Maspalomas ES current weather conditions

sailwx.info

Wind from 130 at 5 knots gusting 8

Air temperature 25.0° C
Dewpoint 21.1° C

Last reported at 2014-Oct-25 15:50 UTC.
Time now 2014-Oct-25 16:58 UTC

Location: N 27°46' W 015°34'.
View on Google Maps.

See reports from other nearby stations

  
Tides and Currents Weather Stations Pressure Air Temp Water Temp Dewpoint Dewpoint Depression Visibility Wind Speed Wind Dir Waves Ship Positions
date/time (UTC)wind fromknots sea level pressurealtimeterstation pressurevisibilityair tempwater tempwave heightnotes
2014-Oct-25 15:50 130 5 gusting 8 25.0
2014-Oct-25 15:40 115 6 gusting 10 25.0
2014-Oct-25 15:30 119 7 gusting 10 25.6
2014-Oct-25 15:20 118 6 gusting 10 25.6
2014-Oct-25 15:10 120 7 gusting 10 25.6
2014-Oct-25 15:00 119 6 gusting 10 25.6
2014-Oct-25 14:50 128 5 gusting 10 25.6
2014-Oct-25 14:40 124 5 gusting 7 25.6
2014-Oct-25 14:30 122 6 gusting 8 25.6
2014-Oct-25 14:20 130 5 gusting 7 25.6
2014-Oct-25 14:10 124 5 gusting 8 25.6
2014-Oct-25 14:00 120 6 gusting 10 25.6
2014-Oct-25 13:50 122 6 gusting 10 25.6
2014-Oct-25 13:40 121 7 gusting 10 25.6
2014-Oct-25 13:30 124 8 gusting 11 25.6
2014-Oct-25 13:20 124 8 gusting 12 25.6
2014-Oct-25 13:10 121 9 gusting 12 25.6
2014-Oct-25 13:00 126 10 gusting 14 25.0
2014-Oct-25 12:50 122 10 gusting 15 25.0
2014-Oct-25 12:40 124 12 gusting 17 25.0
2014-Oct-25 12:30 127 11 gusting 19 25.6
2014-Oct-25 12:20 122 12 gusting 19 26.1
2014-Oct-25 12:10 115 11 gusting 18 26.1
2014-Oct-25 12:00 113 11 gusting 17 25.6
2014-Oct-25 11:50 118 12 gusting 19 25.6
2014-Oct-25 11:40 115 12 gusting 19 25.6
2014-Oct-25 11:30 124 14 gusting 18 26.1
2014-Oct-25 11:20 112 13 gusting 17 26.1
2014-Oct-25 11:10 118 12 gusting 17 26.7
2014-Oct-25 11:00 118 12 gusting 17 26.7
2014-Oct-25 10:50 110 13 gusting 17 26.7
2014-Oct-25 10:40 108 12 gusting 15 26.1
2014-Oct-25 10:30 112 10 gusting 13 26.1
2014-Oct-25 10:20 117 9 gusting 13 26.7
2014-Oct-25 10:10 116 10 gusting 13 26.7
2014-Oct-25 10:00 107 8 gusting 14 27.2
2014-Oct-25 09:50 113 10 gusting 14 26.7
2014-Oct-25 09:40 122 9 gusting 13 26.7
2014-Oct-25 09:30 107 8 gusting 12 27.2
2014-Oct-25 09:20 107 8 gusting 12 26.7
2014-Oct-25 09:10 110 7 gusting 10 26.1
2014-Oct-25 09:00 109 6 gusting 10 26.1
2014-Oct-25 08:50 112 6 gusting 10 25.6
2014-Oct-25 08:40 106 6 gusting 7 25.0
2014-Oct-25 08:30 120 3 gusting 6 24.4
2014-Oct-25 08:20 115 1 gusting 2 23.9
2014-Oct-25 08:10 111 1 gusting 6 23.3
2014-Oct-25 08:00 100 3 gusting 6 22.2
2014-Oct-25 07:50 097 5 gusting 6 21.1
2014-Oct-25 07:40 108 2 gusting 5 20.6
2014-Oct-25 07:30 095 20.0
2014-Oct-25 07:20 253 20.0
2014-Oct-25 07:10 253 20.6
2014-Oct-25 07:00 253 20.6
2014-Oct-25 06:50 253 20.6
2014-Oct-25 06:40 253 20.6
2014-Oct-25 06:30 253 20.6
2014-Oct-25 06:20 253 20.6
2014-Oct-25 06:10 253 20.6
2014-Oct-25 06:00 253 20.6
2014-Oct-25 05:50 253 20.6
2014-Oct-25 05:40 253 20.6
2014-Oct-25 05:30 253 20.6
2014-Oct-25 05:20 253 20.6
2014-Oct-25 05:10 253 20.6
2014-Oct-25 05:00 253 20.6
2014-Oct-25 04:50 253 20.0
2014-Oct-25 04:40 253 20.0
2014-Oct-25 04:30 253 20.6
2014-Oct-25 04:20 253 20.6
2014-Oct-25 04:10 253 20.6
2014-Oct-25 04:00 253 20.6
2014-Oct-25 03:50 253 21.1
2014-Oct-25 03:40 253 21.1
2014-Oct-25 03:30 253 21.7
2014-Oct-25 03:20 253 21.7
2014-Oct-25 03:10 253 21.7
2014-Oct-25 03:00 253 21.7
2014-Oct-25 02:50 253 0 gusting 1 21.7
2014-Oct-25 02:40 253 21.7
2014-Oct-25 02:30 253 21.7
2014-Oct-25 02:20 253 22.2
2014-Oct-25 02:10 253 22.2
2014-Oct-25 02:00 253 21.7
2014-Oct-25 01:50 253 21.7
2014-Oct-25 01:40 253 21.7
2014-Oct-25 01:30 253 21.7
2014-Oct-25 01:20 227 0 gusting 2 21.7
2014-Oct-25 01:10 311 21.7
2014-Oct-25 01:00 311 0 gusting 1 21.7
2014-Oct-25 00:50 311 21.7
2014-Oct-25 00:40 311 21.7
2014-Oct-25 00:30 311 1 gusting 2 21.7
2014-Oct-25 00:20 311 0 gusting 2 21.7
2014-Oct-25 00:10 286 0 gusting 4 21.7
2014-Oct-25 00:00 289 1 gusting 2 22.2
2014-Oct-24 23:50 306 1 gusting 2 22.2
2014-Oct-24 23:40 309 0 gusting 2 22.2
2014-Oct-24 23:30 096 22.2
2014-Oct-24 23:20 096 22.2
2014-Oct-24 23:10 096 22.2
2014-Oct-24 23:00 096 22.2
2014-Oct-24 22:50 096 22.8
2014-Oct-24 22:40 281 0 gusting 2 22.8
2014-Oct-24 22:30 281 22.8
2014-Oct-24 22:20 281 22.8
2014-Oct-24 22:10 281 22.8
2014-Oct-24 22:00 281 22.8
2014-Oct-24 21:50 281 22.8
2014-Oct-24 21:40 264 1 gusting 4 22.8
2014-Oct-24 21:30 274 0 gusting 5 22.8
2014-Oct-24 21:20 182 1 gusting 4 22.8
2014-Oct-24 21:10 120 1 gusting 2 22.8
2014-Oct-24 21:00 120 22.8
2014-Oct-24 20:50 120 22.8
2014-Oct-24 20:40 120 1 gusting 2 23.3
2014-Oct-24 20:30 120 0 gusting 2 23.3
2014-Oct-24 20:20 120 1 gusting 2 23.3
2014-Oct-24 20:10 120 0 gusting 2 23.3
2014-Oct-24 20:00 120 2 gusting 2 23.3
2014-Oct-24 19:50 120 1 gusting 2 23.3
2014-Oct-24 19:40 120 1 gusting 2 23.3
2014-Oct-24 19:30 120 0 gusting 4 23.3
2014-Oct-24 19:20 120 2 gusting 4 23.3
2014-Oct-24 19:10 120 1 gusting 6 23.9
2014-Oct-24 19:00 124 4 gusting 6 23.9
2014-Oct-24 18:50 119 6 gusting 7 23.9
2014-Oct-24 18:40 125 4 gusting 6 23.9
2014-Oct-24 18:30 126 4 gusting 6 23.9
2014-Oct-24 18:20 131 2 gusting 4 24.4
2014-Oct-24 18:10 131 2 gusting 5 24.4
2014-Oct-24 18:00 131 3 gusting 6 24.4
2014-Oct-24 17:50 135 2 gusting 5 25.0
2014-Oct-24 17:40 129 4 gusting 5 25.6
2014-Oct-24 17:30 171 2 gusting 6 25.6
2014-Oct-24 17:10 119 6 gusting 8 26.1
2014-Oct-24 17:00 123 6 gusting 10 26.7
2014-Oct-24 16:50 122 6 gusting 8 26.7
2014-Oct-24 16:40 118 5 gusting 10 26.1
2014-Oct-24 16:30 120 7 gusting 10 26.7
2014-Oct-24 16:20 121 4 gusting 8 26.1
2014-Oct-24 16:10 164 3 gusting 6 26.7
2014-Oct-24 16:00 116 3 gusting 10 26.1
2014-Oct-24 15:50 159 6 gusting 13 26.7
2014-Oct-24 15:40 117 8 gusting 13 27.2
2014-Oct-24 15:30 116 8 gusting 13 27.2
2014-Oct-24 15:20 112 10 gusting 15 27.2
2014-Oct-24 15:10 123 11 gusting 14 27.2
2014-Oct-24 15:00 118 8 gusting 13 27.2
2014-Oct-24 14:50 120 8 gusting 13 27.2
2014-Oct-24 14:20 160 5 gusting 10 27.2
2014-Oct-24 14:10 152 4 gusting 10 27.2
2014-Oct-24 14:00 148 5 gusting 10 27.2
2014-Oct-24 13:50 161 5 gusting 10 27.2
2014-Oct-24 13:40 171 4 gusting 10 27.2
2014-Oct-24 13:30 150 2 gusting 6 27.8
2014-Oct-24 13:20 158 2 gusting 6 27.8
2014-Oct-24 13:10 141 5 gusting 11 27.8
2014-Oct-24 13:00 135 4 gusting 7 27.8
2014-Oct-24 12:50 138 5 gusting 10 27.8
2014-Oct-24 12:40 166 4 gusting 7 27.8
2014-Oct-24 12:30 129 4 gusting 10 28.3
2014-Oct-24 12:20 137 3 gusting 8 28.9
2014-Oct-24 12:10 126 4 gusting 8 28.9
2014-Oct-24 12:00 128 5 gusting 7 28.9
2014-Oct-24 11:50 139 5 gusting 8 28.9
2014-Oct-24 11:40 135 5 gusting 10 30.0
2014-Oct-24 11:30 136 3 gusting 8 30.0
2014-Oct-24 11:20 115 5 gusting 7 29.4
2014-Oct-24 11:10 155 3 gusting 6 29.4
2014-Oct-24 11:00 180 4 gusting 6 28.9
2014-Oct-24 10:50 221 3 gusting 6 28.3
2014-Oct-24 10:40 225 2 gusting 6 27.8
2014-Oct-24 10:30 242 3 gusting 6 27.8
2014-Oct-24 10:20 225 2 gusting 5 27.8
2014-Oct-24 10:10 222 2 gusting 6 27.2
2014-Oct-24 10:00 228 5 gusting 10 27.2
2014-Oct-24 09:50 222 3 gusting 6 27.2
2014-Oct-24 09:40 246 2 gusting 4 26.7
2014-Oct-24 09:30 250 4 gusting 6 26.7
2014-Oct-24 09:20 279 2 gusting 4 26.1
2014-Oct-24 09:10 235 1 gusting 7 26.1
2014-Oct-24 09:00 276 4 gusting 5 26.1
2014-Oct-24 08:50 214 26.1
2014-Oct-24 08:40 258 1 gusting 2 25.6
2014-Oct-24 08:30 089 0 gusting 2 26.1
2014-Oct-24 08:20 071 25.0
2014-Oct-24 08:10 310 23.9
2014-Oct-24 08:00 094 23.3
2014-Oct-24 07:50 094 22.8
2014-Oct-24 07:40 094 22.2
2014-Oct-24 07:30 088 0 gusting 2 22.2
2014-Oct-24 07:20 296 22.2
2014-Oct-24 07:10 296 1 gusting 2 22.2
2014-Oct-24 07:00 296 22.2
2014-Oct-24 06:50 296 22.2
2014-Oct-24 06:40 296 1 gusting 2 22.2
2014-Oct-24 06:30 296 21.7
2014-Oct-24 06:20 304 1 gusting 4 21.7
2014-Oct-24 06:10 293 2 gusting 4 21.7
2014-Oct-24 06:00 311 2 gusting 4 21.1
2014-Oct-24 05:50 283 2 gusting 2 21.7
2014-Oct-24 05:40 299 2 gusting 2 21.7
2014-Oct-24 05:30 299 21.7
2014-Oct-24 05:20 299 21.7
2014-Oct-24 05:10 299 21.7
2014-Oct-24 05:00 299 21.7
2014-Oct-24 04:50 299 21.7
2014-Oct-24 04:40 299 21.7
2014-Oct-24 04:30 299 21.1
2014-Oct-24 04:20 299 21.1
2014-Oct-24 04:10 299 21.7
2014-Oct-24 04:00 299 21.7
2014-Oct-24 03:50 309 0 gusting 5 21.7
2014-Oct-24 03:40 303 1 gusting 5 21.7
2014-Oct-24 03:30 319 2 gusting 5 21.1
2014-Oct-24 03:20 300 2 gusting 4 21.1
2014-Oct-24 03:10 288 2 gusting 4 21.7
2014-Oct-24 03:00 302 0 gusting 4 21.1
2014-Oct-24 02:50 302 0 gusting 2 21.1
2014-Oct-24 02:40 302 2 gusting 4 21.1
2014-Oct-24 02:30 097 21.1
2014-Oct-24 02:20 097 21.1
2014-Oct-24 02:10 097 21.1
2014-Oct-24 02:00 097 21.7
2014-Oct-24 01:50 097 21.7
2014-Oct-24 01:40 097 0 gusting 5 21.7
2014-Oct-24 01:30 081 3 gusting 5 21.7
2014-Oct-24 01:20 083 2 gusting 4 21.7
2014-Oct-24 01:10 083 21.7
2014-Oct-24 01:00 084 22.2
2014-Oct-24 00:50 084 22.2
2014-Oct-24 00:40 084 0 gusting 2 22.2
2014-Oct-24 00:30 084 1 gusting 2 22.2
2014-Oct-24 00:20 309 22.2
2014-Oct-24 00:10 309 1 gusting 2 22.2
2014-Oct-24 00:00 309 1 gusting 2 22.8
2014-Oct-23 23:50 309 22.2
2014-Oct-23 23:40 309 22.8
2014-Oct-23 23:30 309 0 gusting 4 22.8
2014-Oct-23 23:20 298 1 gusting 2 22.2
2014-Oct-23 23:10 308 1 gusting 2 22.2
2014-Oct-23 23:00 308 22.8
2014-Oct-23 22:40 308 22.8
2014-Oct-23 22:30 308 1 gusting 2 22.8
2014-Oct-23 22:20 308 1 gusting 2 22.8
2014-Oct-23 22:10 308 1 gusting 2 22.8
2014-Oct-23 22:00 308 1 gusting 2 23.3
2014-Oct-23 21:50 251 1 gusting 2 23.3
2014-Oct-23 21:40 251 23.3
2014-Oct-23 21:30 251 23.3
2014-Oct-23 21:20 251 0 gusting 1 23.3
2014-Oct-23 21:10 251 23.9
2014-Oct-23 21:00 251 23.9
2014-Oct-23 20:50 251 23.9
2014-Oct-23 20:40 251 23.9
2014-Oct-23 20:30 251 23.9
2014-Oct-23 20:20 251 0 gusting 2 23.9
2014-Oct-23 20:10 251 24.4
2014-Oct-23 20:00 251 24.4
2014-Oct-23 19:50 251 24.4
2014-Oct-23 19:40 251 24.4
2014-Oct-23 19:30 251 0 gusting 2 25.0
2014-Oct-23 19:20 251 25.0
2014-Oct-23 19:10 251 25.0
2014-Oct-23 19:00 251 25.0
2014-Oct-23 18:50 251 25.0
2014-Oct-23 18:30 242 1 gusting 4 25.6
2014-Oct-23 18:20 245 2 gusting 5 25.6
2014-Oct-23 18:10 238 4 gusting 6 25.6
2014-Oct-23 18:00 225 3 gusting 6 26.1
2014-Oct-23 17:50 250 3 gusting 6 26.1
2014-Oct-23 17:40 218 4 gusting 7 26.7
2014-Oct-23 17:30 241 4 gusting 7 27.2
2014-Oct-23 17:20 243 4 gusting 6 27.2
2014-Oct-23 17:10 235 4 gusting 6 27.2
2014-Oct-23 17:00 257 5 gusting 7 27.2
2014-Oct-23 16:50 244 6 gusting 10 27.2
2014-Oct-23 16:40 237 6 gusting 12 27.8
2014-Oct-23 16:30 267 7 gusting 11 27.2
2014-Oct-23 16:20 250 8 gusting 12 27.8
2014-Oct-23 16:10 248 8 gusting 12 28.3
2014-Oct-23 16:00 259 6 gusting 10 28.9